SCP
0 0 0 0 0 0 0 0 0 0 0 0 0 0 0 0 0 1 1 1 1 1 1 1 0 0 0 0 0 0 0 0 0 0 0 0 0 0 0 0 0 0 0
0 0 0 0 0 0 0 0 0 0 0 0 0 0 0 0 0 0 0 1 1 1 1 1 0 0 0 0 0 0 0 0 0 0 0 0 0 0 0 0 0 0 0
0 0 0 0 0 0 0 0 0 0 0 0 0 0 0 0 0 0 0 0 0 1 1 1 0 0 0 0 0 0 0 0 0 0 0 0 0 0 0 0 0 0 0
0 0 0 0 0 0 0 0 0 0 0 0 0 0 0 0 0 0 0 0 0 0 0 0 0 0 0 0 0 0 0 0 0 0 0 0 0 0 0 0 0 0 0
0 0 0 0 0 0 0 0 0 0 0 0 0 0 0 0 0 0 0 0 0 0 0 0 0 0 0 0 0 0 0 0 0 0 0 0 0 0 0 0 0 0 0
0 0 0 0 0 0 0 0 0 0 0 0 0 0 0 0 0 0 0 0 0 0 0 0 0 0 0 0 0 0 0 0 0 0 0 0 0 0 0 0 0 0 0
0 0 0 0 0 0 0 0 0 0 0 0 0 0 0 0 0 0 0 0 0 0 0 0 0 0 0 0 0 0 0 0 0 0 0 0 0 0 0 0 0 0 0
0 0 0 0 0 0 0 0 0 0 0 0 0 0 0 0 0 0 0 0 0 0 0 0 0 0 0 0 0 0 0 0 0 0 0 0 0 0 0 0 0 0 0
0 0 0 0 0 0 0 0 0 0 0 0 0 0 0 0 0 0 0 0 0 0 0 0 0 0 0 0 0 0 0 0 0 0 0 0 0 0 0 0 0 0 0
0 0 0 0 0 0 0 0 0 0 0 0 0 0 0 0 0 0 0 0 0 0 0 0 0 0 0 0 0 0 0 0 0 0 0 0 0 0 0 0 0 0 0
0 0 0 0 0 0 0 0 0 0 0 0 0 0 0 0 0 0 0 0 0 0 0 0 0 0 0 0 0 0 0 0 0 0 0 0 0 0 0 0 0 0 0
0 0 0 0 0 0 0 0 0 0 0 0 0 0 0 0 0 0 0 0 0 0 0 0 0 0 0 0 0 0 0 0 0 0 0 0 0 0 0 0 0 0 0
0 0 0 0 0 0 0 0 0 0 0 0 0 0 0 0 0 0 0 0 0 0 0 0 0 0 0 0 0 0 0 0 0 0 0 0 0 0 0 0 0 0 0
0 0 0 0 0 0 0 0 0 0 0 0 0 0 0 0 0 0 0 0 0 0 0 0 0 0 0 0 0 0 0 0 0 0 0 0 0 0 0 0 0 0 0
0 0 0 0 0 0 0 0 0 0 0 0 0 0 0 0 0 0 0 0 0 0 0 0 0 0 0 0 0 0 0 0 0 0 0 0 0 0 0 0 0 0 0
0 0 0 0 0 0 0 0 0 0 0 0 0 0 0 0 0 0 0 0 0 0 0 0 0 0 0 0 0 0 0 0 0 0 0 0 0 0 0 0 0 0 0
0 0 0 0 0 0 0 0 0 0 0 0 0 0 0 0 0 0 0 0 0 0 0 0 0 0 0 0 0 0 0 0 0 0 0 0 0 0 0 0 0 0 0
0 0 0 0 0 0 0 0 0 0 0 0 0 0 0 0 0 0 0 0 0 0 0 0 0 0 0 0 0 0 0 0 0 0 0 0 0 0 0 0 0 0 0
0 0 0 0 0 0 0 0 0 0 0 0 0 0 0 0 0 0 0 0 0 0 0 0 0 0 0 0 0 0 0 0 0 0 0 0 0 0 0 0 0 0 0
0 0 0 0 0 0 0 0 0 0 0 0 0 0 0 0 0 0 0 0 0 0 0 0 0 0 0 0 0 0 0 0 0 0 0 0 0 0 0 0 0 0 0
0 0 0 0 0 0 0 0 0 0 0 0 0 0 0 0 0 0 0 0 0 0 0 0 0 0 0 0 0 0 0 0 0 0 0 0 0 0 0 0 0 0 0
0 0 0 0 0 0 0 0 0 0 0 0 0 0 0 0 0 0 0 0 0 0 0 0 0 0 0 0 0 0 0 0 0 0 0 0 0 0 0 0 0 0 0
0 0 0 0 0 0 0 0 0 0 0 0 0 0 0 0 0 0 0 0 0 0 0 0 0 0 0 0 0 0 0 0 0 0 0 0 0 0 0 0 0 0 0
0 0 0 0 0 0 0 0 0 0 0 0 0 0 0 0 0 0 0 0 0 0 0 0 0 0 0 0 0 0 0 0 0 0 0 0 0 0 0 0 0 0 0
0 0 0 0 0 0 0 0 0 0 0 0 0 0 0 0 0 0 0 0 0 0 0 0 0 0 0 0 0 0 0 0 0 0 0 0 0 0 0 0 0 0 0
0 0 0 0 0 0 0 0 0 0 0 0 0 0 0 0 0 0 0 0 0 0 0 0 0 0 0 0 0 0 0 0 0 0 0 0 0 0 0 0 0 0 0
Wind_Speed
7 7 8 8 7 7 8 8 8 7 5 3 3 3 2 2 2 4 7 7 6 6 5 4 4 4 4 4 4 3 3 2 2 1 1 2 3 4 4 4 4 5 5
8 8 8 8 7 7 6 6 6 6 6 3 2 2 2 2 2 3 4 4 4 4 5 5 5 5 3 4 4 3 3 2 3 3 1 2 3 2 1 2 2 3 2
6 6 6 6 5 5 5 5 5 5 5 5 3 2 2 2 3 4 4 5 4 3 3 4 4 5 5 5 5 5 5 3 2 2 3 3 3 2 2 2 1 1 2
4 4 4 4 4 4 4 3 3 3 4 4 4 4 3 2 3 3 3 5 6 5 3 2 3 4 4 5 5 6 4 4 3 2 2 2 3 2 1 2 2 2 3
3 4 5 5 5 5 4 4 4 3 3 2 2 2 2 0 2 2 4 5 5 6 6 4 2 3 4 5 5 5 5 4 4 4 3 2 1 2 2 3 3 3 3
4 5 6 6 7 6 5 5 4 4 3 2 1 1 1 1 2 3 3 4 3 3 5 5 4 4 4 5 6 6 7 6 5 4 4 4 3 4 4 4 3 3 3
5 6 7 7 7 8 7 6 6 6 5 4 3 3 2 2 2 2 2 2 2 2 3 4 4 4 4 5 6 6 7 7 7 6 5 5 4 3 3 3 3 3 3
6 7 8 7 7 8 8 7 7 8 6 6 6 5 5 3 3 4 3 3 3 3 3 3 4 4 5 5 4 6 7 7 8 8 7 5 5 5 5 4 3 2 2
7 8 8 7 7 8 9 8 7 8 8 7 7 7 7 6 6 6 5 4 4 4 4 3 4 4 4 4 4 5 6 7 8 8 8 6 5 5 5 5 4 3 2
8 8 7 7 7 7 8 8 7 8 9 8 8 8 8 8 7 6 7 7 6 5 5 5 4 4 4 3 3 3 5 6 7 6 7 7 5 5 5 5 5 5 4
8 7 7 7 8 9 9 9 9 9 9 10 9 9 9 9 8 7 9 8 7 7 7 6 5 5 5 4 3 3 3 5 5 6 7 9 7 6 6 5 5 6 5
8 7 7 8 9 10 10 10 10 10 11 11 10 11 10 9 9 10 11 10 9 9 8 7 7 7 6 5 4 4 3 4 5 6 6 8 7 8 7 6 7 6 7
9 8 8 9 10 11 11 11 11 12 12 12 12 12 12 11 11 12 11 10 10 10 9 8 8 8 7 6 6 6 5 5 5 5 6 7 7 8 7 7 7 6 6
9 9 9 10 10 10 10 11 12 11 12 12 12 13 14 13 13 12 11 11 11 11 10 10 10 9 8 8 7 6 6 6 5 5 5 6 6 7 8 7 8 7 7
10 10 10 9 9 9 9 9 10 11 11 12 12 13 14 14 13 12 11 11 11 12 11 10 9 9 8 8 8 8 7 6 6 5 6 6 7 9 8 6 7 8 7
10 10 11 10 10 10 10 10 10 11 11 12 13 13 13 13 13 13 12 11 11 11 10 10 10 9 8 10 13 9 7 6 6 6 6 6 7 9 11 12 11 11 9
11 11 11 11 11 11 11 11 11 11 11 12 13 13 13 13 13 14 13 11 10 10 10 10 10 10 10 13 13 13 8 7 7 7 6 6 5 7 7 9 11 12 13
10 10 10 11 11 11 12 12 12 12 12 13 13 13 13 14 13 13 13 12 9 8 8 9 9 9 10 13 13 12 8 8 8 8 8 7 7 6 7 6 7 8 9
10 11 12 13 11 12 12 12 13 13 14 14 14 14 14 14 14 14 12 11 9 8 8 7 9 9 9 11 11 10 5 6 8 8 8 7 8 8 9 8 8 7 7
10 11 12 12 12 12 12 13 14 14 14 14 14 14 14 14 14 13 12 10 9 9 8 8 8 8 8 10 11 9 4 6 6 6 6 8 9 9 9 9 9 9 8
13 12 12 12 12 12 12 13 14 14 14 14 14 14 13 13 13 11 10 9 8 7 7 7 7 7 8 9 11 10 6 6 6 5 5 5 7 9 10 10 9 9 8
12 11 11 13 13 12 12 14 14 14 14 14 14 14 13 12 10 9 8 7 6 6 5 6 6 5 6 8 9 11 11 9 7 6 5 4 6 7 9 9 9 11 10
11 11 12 14 13 12 11 14 14 14 14 14 14 13 13 10 9 8 7 6 4 4 4 5 5 5 4 5 10 11 11 11 8 6 6 6 5 5 6 9 11 12 8
12 11 12 14 14 13 13 13 13 13 13 13 12 11 11 10 8 6 5 4 3 3 4 5 5 4 4 4 4 4 5 7 7 5 5 4 4 4 5 6 9 8 8
10 10 12 13 15 14 14 13 12 12 13 12 11 10 9 9 7 6 5 5 4 4 4 4 4 4 5 6 7 5 4 5 5 5 3 3 2 3 3 4 6 6 7
11 12 12 13 14 14 14 13 11 11 11 10 10 7 7 7 6 6 6 4 4 4 5 5 4 4 5 4 5 6 6 6 8 6 4 4 4 4 4 5 6 6 7
Wind_Direction
26 26 24 23 22 17 13 5 2 352 350 339 331 334 316 307 260 250 252 248 237 214 198 191 182 177 181 187 178 161 166 177 155 144 285 294 264 254 248 245 246 252 254
19 17 15 14 8 4 359 360 359 354 352 339 315 300 301 301 293 297 298 287 260 228 206 191 185 180 174 179 178 165 159 175 169 157 149 304 320 301 257 251 233 246 265
13 359 359 356 351 352 351 354 352 354 353 348 345 345 349 345 352 351 350 340 319 264 235 210 197 188 180 189 191 182 171 175 183 182 161 177 229 289 311 299 282 283 279
343 329 324 323 323 316 320 331 337 345 351 0 31 47 43 15 342 327 336 346 356 354 340 277 232 215 202 198 198 189 180 162 173 193 209 197 179 187 288 305 299 296 279
293 290 290 289 290 290 295 298 303 318 334 357 39 69 65 349 298 323 347 356 359 5 4 350 305 250 230 221 208 191 188 178 173 177 177 183 196 198 206 261 298 302 274
278 278 277 278 280 279 274 270 274 279 284 295 328 79 71 344 346 347 349 347 342 347 358 355 345 308 263 238 224 209 199 193 186 186 185 177 177 188 197 227 256 282 284
274 278 280 280 278 279 274 269 267 269 269 269 264 250 244 246 256 273 294 306 313 314 329 342 336 327 300 264 235 219 213 201 197 197 200 200 202 180 181 205 243 273 292
278 279 281 283 287 289 288 280 270 268 268 265 265 259 251 245 245 245 244 253 253 263 279 305 313 314 313 301 258 231 222 210 209 208 203 203 209 196 191 194 200 255 274
297 295 298 302 302 301 297 288 277 274 273 268 265 264 256 246 246 247 245 247 250 257 262 278 288 295 302 303 283 249 235 219 215 213 210 209 210 202 203 200 195 202 243
304 305 308 308 304 301 300 300 286 273 270 268 264 265 257 250 247 245 245 245 247 250 261 265 268 277 285 289 293 272 250 232 226 217 214 216 214 208 202 201 202 202 210
301 299 297 296 295 297 296 294 289 283 280 274 268 265 261 255 248 244 246 244 244 242 246 252 256 262 266 264 266 274 271 251 241 232 224 226 217 210 204 197 196 202 205
300 294 294 299 302 302 300 296 289 284 278 275 273 268 265 259 250 246 244 240 239 238 237 241 248 255 256 251 249 259 261 261 256 247 240 239 227 220 210 200 201 200 201
309 304 305 303 302 301 300 299 296 291 289 288 285 281 277 269 258 250 244 238 235 236 233 229 236 245 248 247 245 244 246 240 248 251 244 245 237 231 217 209 205 199 195
303 299 299 297 297 297 299 300 301 300 300 298 293 288 284 279 272 263 251 241 234 232 231 227 229 236 243 245 244 242 240 237 236 239 244 245 240 239 229 218 212 197 190
299 297 296 295 295 298 300 301 301 303 303 301 297 292 289 287 282 274 263 253 242 235 228 224 225 228 233 240 238 234 234 233 234 234 235 241 245 244 235 224 214 195 191
299 301 301 302 304 304 304 302 301 301 300 298 295 294 293 291 288 282 274 261 248 239 228 220 220 222 227 232 232 229 231 232 235 241 242 244 251 252 240 229 217 199 193
303 302 302 301 302 302 302 301 297 297 296 294 294 294 293 291 290 290 285 273 258 243 231 224 216 219 227 231 237 240 233 234 236 239 243 250 245 249 247 232 219 210 205
295 298 299 301 300 297 298 297 298 298 298 296 295 294 293 292 290 287 284 275 263 247 236 229 218 216 228 229 233 240 235 234 239 238 237 241 250 249 237 225 218 215 214
296 298 300 300 298 299 300 302 303 303 302 301 298 297 293 290 288 285 280 276 265 253 237 230 221 216 228 231 234 235 222 232 242 241 237 238 248 248 231 218 216 214 219
299 300 300 299 300 302 305 308 309 307 305 305 302 299 295 290 287 283 277 273 263 254 242 232 223 218 226 234 237 232 214 229 239 243 240 237 244 251 229 215 210 211 209
297 300 302 306 307 308 310 310 309 308 307 306 303 300 297 292 288 282 277 271 261 247 236 231 226 221 226 237 240 232 210 219 229 234 236 237 242 248 236 220 215 209 190
303 305 306 310 311 311 312 311 310 309 308 308 306 303 300 297 299 290 286 278 262 246 234 230 232 230 230 231 239 236 222 213 218 227 229 236 248 252 242 223 210 187 176
304 307 309 312 313 314 312 310 310 312 312 311 310 310 309 305 301 296 289 282 261 237 225 223 229 234 231 234 235 239 234 222 215 222 217 226 253 260 245 223 194 178 177
309 310 313 315 316 317 315 310 310 313 314 315 315 316 316 314 310 303 293 280 258 245 230 219 223 229 233 234 228 222 223 218 210 208 207 220 245 245 232 200 188 186 179
308 309 313 314 315 317 317 315 314 316 318 318 318 320 320 319 317 311 298 285 261 246 234 218 211 213 228 231 215 203 204 196 189 173 184 200 216 227 207 191 183 178 167
309 313 314 315 316 318 316 316 318 320 321 322 323 323 323 322 322 322 323 312 289 283 257 240 224 224 233 249 224 215 208 189 169 166 188 202 209 213 199 185 178 172 163